Andermatt, Switzerland 16 day weather forecast

Slopes altitude range 1445 m - 2960m

Number of lifts: 20 Pistes: 125km

In some cases the lift and piste totals shown are for the ski domain (e.g. Three Valleys) rather than individual resort (e.g. Courchevel)

Overview

The 16 day weather forecast is fully updated 4 times every day.

    • Mon 22 APR 2019
    • Mon 22
    • -1C 5C
    • Tue 23 APR 2019
    • Tue 23
    • 0C 4C
    • Wed 24 APR 2019
    • Wed 24
    • 0C 1C
    • Thu 25 APR 2019
    • Thu 25
    • -1C 0C
    • Fri 26 APR 2019
    • Fri 26
    • -4C -1C
    • Sat 27 APR 2019
    • Sat 27
    • -5C 0C
    • Sun 28 APR 2019
    • Sun 28
    • 1C 4C
    • Mon 29 APR 2019
    • Mon 29
    • 1C 6C
    • Tue 30 APR 2019
    • Tue 30
    • -1C 4C
    • Wed 01 MAY 2019
    • Wed 01
    • -1C 4C
    • Thu 02 MAY 2019
    • Thu 02
    • -2C 7C
    • Fri 03 MAY 2019
    • Fri 03
    • 0C 13C
    • Sat 04 MAY 2019
    • Sat 04
    • 5C 15C
    • Sun 05 MAY 2019
    • Sun 05
    • 6C 14C
    • Mon 06 MAY 2019
    • Mon 06
    • 2C 9C
    • Tue 07 MAY 2019
    • Tue 07
    • -2C 2C

Date:

Time Type 0°C level Temp Chill Snow Cloud Speed Gust Dir Press
3:00 1715m -3°C -3_6 0cm 100% 6mph 7mph 1015mB
6:00 1960m -3°C -3_7 0cm 100% 7mph 7mph 1014mB
9:00 2409m -1°C -1_11 0cm 99% 11mph 12mph 1010mB
12:00 2558m 5°C 5_12 0cm 99% 12mph 13mph 1008mB
15:00 2585m 5°C 5_12 0cm 100% 12mph 14mph 1005mB
18:00 2236m 5°C 5_10 0cm 89% 10mph 11mph 1005mB
21:00 1948m -2°C -2_9 0cm 99% 9mph 9mph 1006mB
0:00 2112m -2°C -2_10 1cm 99% 10mph 11mph 1005mB
3:00 2028m -1°C -1_6 1cm 100% 6mph 7mph 1003mB
6:00 2121m -1°C -1_7 1cm 100% 7mph 9mph 1002mB
9:00 2373m 0°C 0_11 1cm 100% 11mph 12mph 1001mB
12:00 2425m 4°C 4_11 1cm 100% 11mph 12mph 1001mB
15:00 2361m 3°C 3_10 1cm 100% 10mph 11mph 1000mB
18:00 2232m 3°C 3_9 1cm 100% 9mph 11mph 1002mB
21:00 2207m 0°C 0_9 1cm 100% 9mph 12mph 1004mB
0:00 2240m 0°C 0_10 1cm 100% 10mph 13mph 1006mB
3:00 2216m 0°C 0_10 1cm 100% 10mph 12mph 1007mB
6:00 2212m 0°C 0_11 1cm 100% 11mph 15mph 1007mB
9:00 2268m 0°C 0_13 2cm 100% 13mph 17mph 1007mB
12:00 2264m 1°C 1_13 2cm 100% 13mph 17mph 1008mB
15:00 2145m 0°C 0_12 8cm 100% 12mph 16mph 1009mB
18:00 2308m 1°C 1_15 7cm 100% 15mph 20mph 1012mB
21:00 2233m 0°C 0_12 1cm 99% 12mph 15mph 1015mB
0:00 2144m -1°C -1_12 1cm 100% 12mph 17mph 1016mB
3:00 2064m -1°C -1_13 1cm 100% 13mph 17mph 1016mB
6:00 2003m -2°C -2_13 1cm 100% 13mph 18mph 1016mB
9:00 2108m -2°C -2_13 1cm 99% 13mph 17mph 1015mB
12:00 2202m 0°C 0_12 1cm 100% 12mph 16mph 1014mB
15:00 2254m 0°C 0_12 1cm 100% 12mph 15mph 1014mB
18:00 2297m 0°C 0_11 1cm 100% 11mph 15mph 1014mB
21:00 2360m 0°C 0_12 1cm 100% 12mph 17mph 1016mB
0:00 2290m 0°C 0_12 1cm 100% 12mph 17mph 1016mB
3:00 2187m 0°C 0_12 1cm 100% 12mph 16mph 1016mB
6:00 2120m -1°C -1_1 4cm 100% 1mph 4mph 1017mB
9:00 1781m -3°C -3_11 13cm 100% 11mph 14mph 1018mB
12:00 1778m -1°C -1_12 9cm 100% 12mph 14mph 1019mB
15:00 1934m -2°C -2_12 1cm 100% 12mph 15mph 1019mB
18:00 1698m -2°C -2_10 1cm 100% 10mph 13mph 1021mB
21:00 1617m -4°C -4_12 1cm 100% 12mph 14mph 1025mB
0:00 1467m -5°C -5_12 1cm 96% 12mph 14mph 1026mB
3:00 1222m -6°C -6_12 0cm 52% 12mph 13mph 1027mB
6:00 1394m -8°C -8_10 0cm 36% 10mph 13mph 1028mB
9:00 2007m -5°C -5_9 0cm 12% 9mph 10mph 1026mB
12:00 2222m 0°C 0_9 0cm 24% 9mph 11mph 1025mB
15:00 2327m 1°C 1_9 0cm 66% 9mph 11mph 1024mB
18:00 2358m 1°C 1_8 0cm 70% 8mph 10mph 1026mB
21:00 1784m -3°C -3_8 0cm 92% 8mph 9mph 1028mB
0:00 1887m -3°C -3_8 0cm 94% 8mph 9mph 1028mB
3:00 1992m -2°C -2_7 0cm 100% 7mph 8mph 1027mB
6:00 2652m -2°C -2_6 1cm 100% 6mph 7mph 1026mB
9:00 2696m 1°C 1_5 0cm 94% 5mph 5mph 1025mB
12:00 2775m 4°C 4_4 0cm 74% 4mph 5mph 1023mB
15:00 2895m 4°C 4_4 0cm 37% 4mph 4mph 1021mB
18:00 2849m 4°C 4_3 0cm 54% 3mph 4mph 1022mB
21:00 2537m 0°C 0_5 0cm 91% 5mph 6mph 1023mB
0:00 2284m -1°C -1_5 0cm 92% 5mph 5mph 1022mB
3:00 1991m -1°C -1_4 0cm 100% 4mph 5mph 1020mB
6:00 2763m -2°C -2_4 0cm 100% 4mph 5mph 1018mB
9:00 2717m 1°C 1_5 0cm 98% 5mph 6mph 1015mB
12:00 2911m 6°C 6_6 0cm 78% 6mph 7mph 1012mB
15:00 2859m 14°C 14_9 0cm 93% 9mph 19mph 1009mB
18:00 2597m 14°C 14_5 0cm 96% 5mph 7mph 1009mB
21:00 2595m 5°C 5_4 0cm 100% 4mph 6mph 1009mB
0:00 2358m 4°C 4_6 0cm 100% 6mph 9mph 1009mB
3:00 1774m 2°C 2_8 0cm 100% 8mph 12mph 1008mB
6:00 1497m 0°C 0_7 5cm 100% 7mph 11mph 1009mB
9:00 1561m -1°C -1_7 1cm 90% 7mph 10mph 1010mB
12:00 1798m 4°C 4_7 1cm 80% 7mph 11mph 1009mB
15:00 1692m 4°C 4_7 2cm 100% 7mph 11mph 1009mB
18:00 1612m 4°C 4_4 3cm 92% 4mph 7mph 1011mB
21:00 1139m -2°C -2_4 1cm 60% 4mph 5mph 1015mB
0:00 864m -4°C -4_5 0cm 57% 5mph 6mph 1016mB
3:00 745m -5°C -5_4 0cm 12% 4mph 5mph 1016mB
6:00 1303m -5°C -5_3 0cm 6% 3mph 4mph 1015mB
9:00 1685m -1°C -1_5 0cm 6% 5mph 5mph 1014mB
12:00 1834m 4°C 4_6 1cm 38% 6mph 7mph 1012mB
15:00 1930m 5°C 5_6 1cm 75% 6mph 8mph 1011mB
18:00 1812m 5°C 5_3 2cm 70% 3mph 5mph 1012mB
21:00 1167m -3°C -3_5 0cm 27% 5mph 6mph 1015mB
0:00 1136m -3°C -3_5 0cm 31% 5mph 6mph 1014mB
Afternoon 0.0364583mm 0.125 2013m 7°C 7_7 1cm 97% 7mph 8mph 1010mB
Morning 0.0260417mm 0.3125 1620m -2°C -2_9 0cm 20% 9mph 9mph 1012mB
Afternoon 0.00520833mm 0.0625 2610m 13°C 13_6 0cm 37% 6mph 8mph 1007mB
Morning 0.0208333mm 0.25 2893m 5°C 5_14 0cm 85% 14mph 20mph 1008mB
Afternoon 0mm 0 2897m 15°C 15_11 0cm 94% 11mph 13mph 1002mB
Morning 0.0833333mm 0 3100m 7°C 7_13 0cm 77% 13mph 20mph 1003mB
Afternoon 0.380208mm 3.625 2917m 14°C 14_6 0cm 61% 6mph 9mph 999mB
Morning 2.875mm 5.75 2068m 3°C 3_6 0cm 100% 6mph 10mph 1000mB
Afternoon 0.416667mm 0 2178m 9°C 9_13 0cm 100% 13mph 17mph 1003mB
Morning 0.307292mm 0.6875 1451m 0°C 0_9 6cm 98% 9mph 13mph 1012mB
Afternoon 0.302083mm 0.25 1505m 2°C 2_10 2cm 98% 10mph 11mph 1015mB
Morning 0.015625mm 0.125 642m -6°C -6_3 0cm 45% 3mph 3mph 1023mB

16 day outlook at a glance

Forecast issued: 22/04/2019 08:03:34

Chat

Your comments and questions. In a resort? Let us know what it's like!


Characters left 250

For terms and conditions see Readers Comments on the Cookie and privacy policy page.